ProjectID,Date,Electric Generation,Electric Utility Import,Facility Electric Load
,YYYY-MM-DD,kW,kW,kW
221,2014-12-01,0.0,,0.0
221,2014-12-02,0.0,,0.0
221,2014-12-03,0.0,,0.0
221,2014-12-04,0.0,,0.0
221,2014-12-05,0.0,,0.0
221,2014-12-06,0.0,,0.0
221,2014-12-07,0.0,,0.0
221,2014-12-08,0.0,,0.0
221,2014-12-09,0.0,,0.0
221,2014-12-10,0.0,,0.0
221,2014-12-11,0.0,,0.0
221,2014-12-12,0.0,,0.0
221,2014-12-13,0.0,,0.0
221,2014-12-14,0.0,,0.0
221,2014-12-15,0.0,,0.0
221,2014-12-16,0.0,,0.0
221,2014-12-17,746.1605416666666,,746.1605416666666
221,2014-12-18,3115.6525,,3115.6525
221,2014-12-19,1459.7790833333331,,1459.7790833333331
221,2014-12-20,2987.7240000000006,,2987.7240000000006
221,2014-12-21,2969.43925,,2969.43925
221,2014-12-22,3089.81675,,3089.81675
221,2014-12-23,3063.149708333334,,3063.149708333334
221,2014-12-24,3081.0014583333327,,3081.0014583333327
221,2014-12-25,2943.419125,,2943.419125
221,2014-12-26,2984.7357916666665,,2984.7357916666665
221,2014-12-27,2995.594833333333,,2995.594833333333
221,2014-12-28,2959.0473333333334,,2959.0473333333334
221,2014-12-29,3085.0294166666663,,3085.0294166666663
221,2014-12-30,3076.554,,3076.554
221,2014-12-31,2988.389458333333,,2988.389458333333
221,2015-01-01,2910.2490416666674,,2910.2490416666674
221,2015-01-02,3070.624708333333,,3070.624708333333
221,2015-01-03,2927.962041666666,,2927.962041666666
221,2015-01-04,2945.479749999999,,2945.479749999999
221,2015-01-05,2923.641666666667,,2923.641666666667
221,2015-01-06,2443.602791666667,,2443.602791666667
221,2015-01-07,814.5551249999997,,814.5551249999997
221,2015-01-08,-122.99554166666667,,-122.99554166666667
221,2015-01-09,-7.518916666666667,,-7.518916666666667
221,2015-01-10,-7.067125,,-7.067125
221,2015-01-11,999.8451249999999,,999.8451249999999
221,2015-01-12,3030.7575833333335,,3030.7575833333335
221,2015-01-13,-40.547000000000004,,-40.547000000000004
221,2015-01-14,-41.13849999999999,,-41.13849999999999
221,2015-01-15,494.02458333333334,,494.02458333333334
221,2015-01-16,2559.4574583333338,,2559.4574583333338
221,2015-01-17,2636.221833333334,,2636.221833333334
221,2015-01-18,2712.4702500000003,,2712.4702500000003
221,2015-01-19,2890.0530416666666,,2890.0530416666666
221,2015-01-20,2989.716,,2989.716
221,2015-01-21,3009.5477916666673,,3009.5477916666673
221,2015-01-22,3116.168291666667,,3116.168291666667
221,2015-01-23,3098.386208333333,,3098.386208333333
221,2015-01-24,3007.9125,,3007.9125
221,2015-01-25,1550.28475,,1550.28475
221,2015-01-26,-25.068166666666666,,-25.068166666666666
221,2015-01-27,1794.6107500000005,,1794.6107500000005
221,2015-01-28,3030.320666666667,,3030.320666666667
221,2015-01-29,3088.3561666666665,,3088.3561666666665
221,2015-01-30,1572.8546250000002,,1572.8546250000002
221,2015-01-31,2856.42625,,2856.42625
221,2015-02-01,2803.793208333333,,2803.793208333333
221,2015-02-02,2959.5597500000003,,2959.5597500000003
221,2015-02-03,2803.593833333334,,2803.593833333334
221,2015-02-04,2842.6744166666663,,2842.6744166666663
221,2015-02-05,2937.3990833333332,,2937.3990833333332
221,2015-02-06,2894.7279583333334,,2894.7279583333334
221,2015-02-07,2807.6638749999997,,2807.6638749999997
221,2015-02-08,2901.132458333333,,2901.132458333333
221,2015-02-09,2926.9975,,2926.9975
221,2015-02-10,2937.3440416666667,,2937.3440416666667
221,2015-02-11,2997.6859999999997,,2997.6859999999997
221,2015-02-12,2972.1965416666667,,2972.1965416666667
221,2015-02-13,3020.017916666667,,3020.017916666667
221,2015-02-14,2872.138375,,2872.138375
221,2015-02-15,2948.3582916666674,,2948.3582916666674
221,2015-02-16,3066.101791666666,,3066.101791666666
221,2015-02-17,2996.703791666667,,2996.703791666667
221,2015-02-18,3057.245833333333,,3057.245833333333
221,2015-02-19,3044.5029999999992,,3044.5029999999992
221,2015-02-20,3016.723791666667,,3016.723791666667
221,2015-02-21,2863.3131250000006,,2863.3131250000006
221,2015-02-22,2819.5800833333337,,2819.5800833333337
221,2015-02-23,2972.8685833333334,,2972.8685833333334
221,2015-02-24,3010.593666666666,,3010.593666666666
221,2015-02-25,3035.050416666667,,3035.050416666667
221,2015-02-26,3025.584416666667,,3025.584416666667
221,2015-02-27,3039.4230416666664,,3039.4230416666664
221,2015-02-28,2928.119541666667,,2928.119541666667
221,2015-03-01,2903.6634166666663,,2903.6634166666663
221,2015-03-02,3049.605041666667,,3049.605041666667
221,2015-03-03,2844.003583333333,,2844.003583333333
221,2015-03-04,2915.371916666667,,2915.371916666667
221,2015-03-05,2960.2426250000003,,2960.2426250000003
221,2015-03-06,3085.5047500000005,,3085.5047500000005
221,2015-03-07,2912.1699166666663,,2912.1699166666663
221,2015-03-08,2722.581833333333,,2722.581833333333
221,2015-03-09,1544.3219583333332,,1544.3219583333332
221,2015-03-10,141.26070833333333,,141.26070833333333
221,2015-03-11,513.4535416666668,,513.4535416666668
221,2015-03-12,3021.94825,,3021.94825
221,2015-03-13,3125.8699166666665,,3125.8699166666665
221,2015-03-14,2888.9557500000005,,2888.9557500000005
221,2015-03-15,2871.765541666667,,2871.765541666667
221,2015-03-16,3096.5491249999995,,3096.5491249999995
221,2015-03-17,3125.6964999999987,,3125.6964999999987
221,2015-03-18,3132.844541666666,,3132.844541666666
221,2015-03-19,3175.0106249999994,,3175.0106249999994
221,2015-03-20,3201.145083333333,,3201.145083333333
221,2015-03-21,157.4990833333333,,157.4990833333333
221,2015-03-22,987.3728750000001,,987.3728750000001
221,2015-03-23,-14.709624999999997,,-14.709624999999997
221,2015-03-24,1353.878125,,1353.878125
221,2015-03-25,3230.8540000000007,,3230.8540000000007
221,2015-03-26,3195.748249999999,,3195.748249999999
221,2015-03-27,3214.6080416666664,,3214.6080416666664
221,2015-03-28,3076.0778750000004,,3076.0778750000004
221,2015-03-29,3076.9794999999995,,3076.9794999999995
221,2015-03-30,3227.7742500000004,,3227.7742500000004
221,2015-03-31,3208.6578749999994,,3208.6578749999994
221,2015-04-01,3173.7165416666667,,3173.7165416666667
221,2015-04-02,3278.8223333333335,,3278.8223333333335
221,2015-04-03,3417.658041666666,,3417.658041666666
221,2015-04-04,3031.9840000000004,,3031.9840000000004
221,2015-04-05,3025.8904166666675,,3025.8904166666675
221,2015-04-06,3230.3610833333337,,3230.3610833333337
221,2015-04-07,3180.587208333333,,3180.587208333333
221,2015-04-08,2880.2369166666667,,2880.2369166666667
221,2015-04-09,3022.991333333333,,3022.991333333333
221,2015-04-10,3240.748958333333,,3240.748958333333
221,2015-04-11,3150.7422500000007,,3150.7422500000007
221,2015-04-12,3322.0108333333333,,3322.0108333333333
221,2015-04-13,3185.7578333333336,,3185.7578333333336
221,2015-04-14,3417.8963750000007,,3417.8963750000007
221,2015-04-15,1973.0862083333334,,1973.0862083333334
221,2015-04-16,-14.923416666666666,,-14.923416666666666
221,2015-04-17,2336.0381666666667,,2336.0381666666667
221,2015-04-18,3203.503,,3203.503
221,2015-04-19,3260.2155416666665,,3260.2155416666665
221,2015-04-20,883.352875,,883.352875
221,2015-04-21,1119.660916666667,,1119.660916666667
221,2015-04-22,3186.3253333333328,,3186.3253333333328
221,2015-04-23,3292.5518333333343,,3292.5518333333343
221,2015-04-24,3173.911708333333,,3173.911708333333
221,2015-04-25,3062.0755000000004,,3062.0755000000004
221,2015-04-26,426.933,,426.933
221,2015-04-27,-4.787541666666667,,-4.787541666666667
221,2015-04-28,-4.960833333333333,,-4.960833333333333
221,2015-04-29,-12.882375000000001,,-12.882375000000001
221,2015-04-30,-2.9799583333333337,,-2.9799583333333337
221,2015-05-01,87.92029166666664,,87.92029166666664
221,2015-05-02,2428.2000833333327,,2428.2000833333327
221,2015-05-03,3457.0820833333346,,3457.0820833333346
221,2015-05-04,3553.1014583333326,,3553.1014583333326
221,2015-05-05,3634.7497499999995,,3634.7497499999995
221,2015-05-06,1901.9189166666665,,1901.9189166666665
221,2015-05-07,1300.9384583333335,,1300.9384583333335
221,2015-05-08,3492.28375,,3492.28375
221,2015-05-09,3228.405083333333,,3228.405083333333
221,2015-05-10,3501.4244999999996,,3501.4244999999996
221,2015-05-11,3660.565041666667,,3660.565041666667
221,2015-05-12,3677.4283333333333,,3677.4283333333333
221,2015-05-13,3435.1915833333333,,3435.1915833333333
221,2015-05-14,3533.9977916666667,,3533.9977916666667
221,2015-05-15,3530.0530416666666,,3530.0530416666666
221,2015-05-16,3629.016041666666,,3629.016041666666
221,2015-05-17,3639.378666666667,,3639.378666666667
221,2015-05-18,3573.774041666666,,3573.774041666666
221,2015-05-19,3665.6785000000004,,3665.6785000000004
221,2015-05-20,3330.142583333333,,3330.142583333333
221,2015-05-21,3480.945666666668,,3480.945666666668
221,2015-05-22,3453.455625,,3453.455625
221,2015-05-23,3217.5866666666666,,3217.5866666666666
221,2015-05-24,3479.660375000001,,3479.660375000001
221,2015-05-25,3506.4262500000004,,3506.4262500000004
221,2015-05-26,3532.0433750000007,,3532.0433750000007
221,2015-05-27,3531.3402499999993,,3531.3402499999993
221,2015-05-28,3718.415041666667,,3718.415041666667
221,2015-05-29,3543.384125,,3543.384125
221,2015-05-30,3389.51075,,3389.51075
221,2015-05-31,3351.5411666666664,,3351.5411666666664
221,2015-06-01,3347.7659166666667,,3347.7659166666667
221,2015-06-02,3177.3697500000003,,3177.3697500000003
221,2015-06-03,2628.38125,,2628.38125
221,2015-06-04,3577.7953333333335,,3577.7953333333335
221,2015-06-05,3535.2821666666664,,3535.2821666666664
221,2015-06-06,3456.5792499999993,,3456.5792499999993
221,2015-06-07,3442.007125,,3442.007125
221,2015-06-08,3626.9491666666668,,3626.9491666666668
221,2015-06-09,3706.226999999999,,3706.226999999999
221,2015-06-10,3406.8327916666663,,3406.8327916666663
221,2015-06-11,148.85529166666666,,148.85529166666666
221,2015-06-12,3414.6077499999997,,3414.6077499999997
221,2015-06-13,3612.497458333333,,3612.497458333333
221,2015-06-14,3543.348333333333,,3543.348333333333
221,2015-06-15,3520.3007916666666,,3520.3007916666666
221,2015-06-16,3538.4064583333334,,3538.4064583333334
221,2015-06-17,3638.886125000001,,3638.886125000001
221,2015-06-18,3568.387208333333,,3568.387208333333
221,2015-06-19,3647.1611666666663,,3647.1611666666663
221,2015-06-20,3499.0360416666667,,3499.0360416666667
221,2015-06-21,3515.5505000000007,,3515.5505000000007
221,2015-06-22,3550.2049583333323,,3550.2049583333323
221,2015-06-23,3456.218166666667,,3456.218166666667
221,2015-06-24,3646.4574583333338,,3646.4574583333338
221,2015-06-25,3561.703541666667,,3561.703541666667
221,2015-06-26,3596.5170000000003,,3596.5170000000003
221,2015-06-27,3634.0397083333332,,3634.0397083333332
221,2015-06-28,3586.817958333333,,3586.817958333333
221,2015-06-29,3649.7066250000003,,3649.7066250000003
221,2015-06-30,3604.2218333333335,,3604.2218333333335
221,2015-07-01,3625.3672083333336,,3625.3672083333336
221,2015-07-02,3622.493916666667,,3622.493916666667
221,2015-07-03,3462.2952083333334,,3462.2952083333334
221,2015-07-04,3560.1464166666665,,3560.1464166666665
221,2015-07-05,3335.869375,,3335.869375
221,2015-07-06,3490.355625,,3490.355625
221,2015-07-07,3233.3777916666663,,3233.3777916666663
221,2015-07-08,3458.4325416666666,,3458.4325416666666
221,2015-07-09,3600.9045416666654,,3600.9045416666654
221,2015-07-10,3539.9490416666667,,3539.9490416666667
221,2015-07-11,3432.6440833333345,,3432.6440833333345
221,2015-07-12,3439.432166666667,,3439.432166666667
221,2015-07-13,3340.232708333333,,3340.232708333333
221,2015-07-14,3365.701583333333,,3365.701583333333
221,2015-07-15,3558.187958333332,,3558.187958333332
221,2015-07-16,3517.2514166666665,,3517.2514166666665
221,2015-07-17,3468.2799999999993,,3468.2799999999993
221,2015-07-18,1575.4640416666668,,1575.4640416666668
221,2015-07-19,1575.8546666666668,,1575.8546666666668
221,2015-07-20,3488.9097500000003,,3488.9097500000003
221,2015-07-21,3594.3972499999986,,3594.3972499999986
221,2015-07-22,3652.153916666668,,3652.153916666668
221,2015-07-23,3645.118375,,3645.118375
221,2015-07-24,3577.6695,,3577.6695
221,2015-07-25,3604.7275000000004,,3604.7275000000004
221,2015-07-26,3542.546291666666,,3542.546291666666
221,2015-07-27,3313.6414999999997,,3313.6414999999997
221,2015-07-28,3517.4661666666657,,3517.4661666666657
221,2015-07-29,3485.530375,,3485.530375
221,2015-07-30,3471.0252916666664,,3471.0252916666664
221,2015-07-31,3552.306416666667,,3552.306416666667
221,2015-08-01,3608.936583333334,,3608.936583333334
221,2015-08-02,456.715375,,456.715375
221,2015-08-03,1795.4311666666665,,1795.4311666666665
221,2015-08-04,3627.722583333334,,3627.722583333334
221,2015-08-05,3661.8651250000003,,3661.8651250000003
221,2015-08-06,3688.7518749999995,,3688.7518749999995
221,2015-08-07,3598.060874999999,,3598.060874999999
221,2015-08-08,3642.030666666667,,3642.030666666667
221,2015-08-09,3594.576374999999,,3594.576374999999
221,2015-08-10,3611.7357500000003,,3611.7357500000003
221,2015-08-11,3431.0527500000003,,3431.0527500000003
221,2015-08-12,3695.774874999999,,3695.774874999999
221,2015-08-13,2766.260291666667,,2766.260291666667
221,2015-08-14,3572.9634583333336,,3572.9634583333336
221,2015-08-15,3553.3697916666674,,3553.3697916666674
221,2015-08-16,3504.9860833333328,,3504.9860833333328
221,2015-08-17,3441.743666666667,,3441.743666666667
221,2015-08-18,3370.690958333334,,3370.690958333334
221,2015-08-19,3430.6288333333337,,3430.6288333333337
221,2015-08-20,3431.794375,,3431.794375
221,2015-08-21,3655.16825,,3655.16825
221,2015-08-22,3360.5380833333343,,3360.5380833333343
221,2015-08-23,3569.1817499999997,,3569.1817499999997
221,2015-08-24,3590.1402083333337,,3590.1402083333337
221,2015-08-25,3668.2335833333327,,3668.2335833333327
221,2015-08-26,3691.674625,,3691.674625
221,2015-08-27,3768.3237916666662,,3768.3237916666662
221,2015-08-28,3685.021541666667,,3685.021541666667
221,2015-08-29,3610.3144166666666,,3610.3144166666666
221,2015-08-30,3560.9677916666674,,3560.9677916666674
221,2015-08-31,3502.8639166666667,,3502.8639166666667
221,2015-09-01,3523.498291666667,,3523.498291666667
221,2015-09-02,3465.2066250000007,,3465.2066250000007
221,2015-09-03,3401.2299583333333,,3401.2299583333333
221,2015-09-04,3227.2827083333336,,3227.2827083333336
221,2015-09-05,3411.640708333334,,3411.640708333334
221,2015-09-06,3389.194291666667,,3389.194291666667
221,2015-09-07,3309.5956666666675,,3309.5956666666675
221,2015-09-08,3228.950875,,3228.950875
221,2015-09-09,3367.670666666667,,3367.670666666667
221,2015-09-10,3557.873833333333,,3557.873833333333
221,2015-09-11,3421.2844999999998,,3421.2844999999998
221,2015-09-12,3608.223833333334,,3608.223833333334
221,2015-09-13,3592.793166666667,,3592.793166666667
221,2015-09-14,3575.7360416666666,,3575.7360416666666
221,2015-09-15,3544.880041666667,,3544.880041666667
221,2015-09-16,3550.3073750000003,,3550.3073750000003
221,2015-09-17,3506.2483749999997,,3506.2483749999997
221,2015-09-18,3465.172583333333,,3465.172583333333
221,2015-09-19,3450.1524583333335,,3450.1524583333335
221,2015-09-20,3744.5862500000003,,3744.5862500000003
221,2015-09-21,3687.3215000000005,,3687.3215000000005
221,2015-09-22,1001.5021250000001,,1001.5021250000001
221,2015-09-23,3487.3300416666666,,3487.3300416666666
221,2015-09-24,3551.940791666666,,3551.940791666666
221,2015-09-25,3588.484958333333,,3588.484958333333
221,2015-09-26,3506.1018750000003,,3506.1018750000003
221,2015-09-27,3484.3702500000004,,3484.3702500000004
221,2015-09-28,3547.14725,,3547.14725
221,2015-09-29,3506.345291666667,,3506.345291666667
221,2015-09-30,3632.7373750000006,,3632.7373750000006
221,2015-10-01,3468.1280000000006,,3468.1280000000006
221,2015-10-02,3356.1332916666665,,3356.1332916666665
221,2015-10-03,3281.5427500000005,,3281.5427500000005
221,2015-10-04,3383.38175,,3383.38175
221,2015-10-05,3301.5860000000007,,3301.5860000000007
221,2015-10-06,3559.1715833333333,,3559.1715833333333
221,2015-10-07,3505.630583333333,,3505.630583333333
221,2015-10-08,3565.4142916666665,,3565.4142916666665
221,2015-10-09,3534.0133749999986,,3534.0133749999986
221,2015-10-10,3292.1058333333335,,3292.1058333333335
221,2015-10-11,3383.2192499999996,,3383.2192499999996
221,2015-10-12,3432.1634166666663,,3432.1634166666663
221,2015-10-13,3558.1472916666667,,3558.1472916666667
221,2015-10-14,3336.8299999999995,,3336.8299999999995
221,2015-10-15,3501.895125000001,,3501.895125000001
221,2015-10-16,3475.9405833333335,,3475.9405833333335
221,2015-10-17,3032.6650416666657,,3032.6650416666657
221,2015-10-18,2919.9571250000004,,2919.9571250000004
221,2015-10-19,3333.4156249999996,,3333.4156249999996
221,2015-10-20,3546.0067083333324,,3546.0067083333324
221,2015-10-21,3592.154541666667,,3592.154541666667
221,2015-10-22,3528.3025,,3528.3025
221,2015-10-23,3271.618458333333,,3271.618458333333
221,2015-10-24,3040.6784583333324,,3040.6784583333324
221,2015-10-25,-19.053,,-19.053
221,2015-10-26,-3.458583333333334,,-3.458583333333334
221,2015-10-27,-4.394291666666667,,-4.394291666666667
221,2015-10-28,-5.8465,,-5.8465
221,2015-10-29,82.63408333333332,,82.63408333333332
221,2015-10-30,3008.1643750000003,,3008.1643750000003
221,2015-10-31,3100.7868749999993,,3100.7868749999993
221,2015-11-01,3265.7725416666667,,3265.7725416666667
221,2015-11-02,3310.753375,,3310.753375
221,2015-11-03,3467.1274583333343,,3467.1274583333343
221,2015-11-04,3457.672916666667,,3457.672916666667
221,2015-11-05,3371.820791666667,,3371.820791666667
221,2015-11-06,3576.0422083333324,,3576.0422083333324
221,2015-11-07,3100.2300833333334,,3100.2300833333334
221,2015-11-08,2916.743333333334,,2916.743333333334
221,2015-11-09,3228.232208333333,,3228.232208333333
221,2015-11-10,3378.142333333333,,3378.142333333333
221,2015-11-11,3435.7589583333342,,3435.7589583333342
221,2015-11-12,3488.915833333333,,3488.915833333333
221,2015-11-13,3302.8947499999995,,3302.8947499999995
221,2015-11-14,3010.953208333334,,3010.953208333334
221,2015-11-15,3104.697458333334,,3104.697458333334
221,2015-11-16,3349.4129166666667,,3349.4129166666667
221,2015-11-17,3186.253541666667,,3186.253541666667
221,2015-11-18,3360.585833333333,,3360.585833333333
221,2015-11-19,3600.879916666667,,3600.879916666667
221,2015-11-20,3200.1979583333327,,3200.1979583333327
221,2015-11-21,3034.344833333333,,3034.344833333333
221,2015-11-22,2998.9067500000006,,2998.9067500000006
221,2015-11-23,1656.2472083333332,,1656.2472083333332
221,2015-11-24,3169.485541666667,,3169.485541666667
221,2015-11-25,3021.212833333333,,3021.212833333333
221,2015-11-26,3072.64125,,3072.64125
221,2015-11-27,3383.0270000000005,,3383.0270000000005
221,2015-11-28,2957.9006666666664,,2957.9006666666664
221,2015-11-29,2963.973041666666,,2963.973041666666
221,2015-11-30,3102.26475,,3102.26475
221,2015-12-01,3188.1683749999997,,3188.1683749999997
221,2015-12-02,3171.705291666667,,3171.705291666667
221,2015-12-03,3108.848791666666,,3108.848791666666
221,2015-12-04,3147.67475,,3147.67475
221,2015-12-05,3014.161291666666,,3014.161291666666
221,2015-12-06,2769.1236666666664,,2769.1236666666664
221,2015-12-07,2910.3015,,2910.3015
221,2015-12-08,3113.2743750000004,,3113.2743750000004
221,2015-12-09,2204.7710833333335,,2204.7710833333335
221,2015-12-10,3415.9240416666676,,3415.9240416666676
221,2015-12-11,3422.955625,,3422.955625
221,2015-12-12,2941.7328749999997,,2941.7328749999997
221,2015-12-13,3219.9563749999998,,3219.9563749999998
221,2015-12-14,3531.2799166666678,,3531.2799166666678
221,2015-12-15,3330.469125,,3330.469125
221,2015-12-16,3163.470333333333,,3163.470333333333
221,2015-12-17,3279.3139583333336,,3279.3139583333336
221,2015-12-18,3122.5394583333327,,3122.5394583333327
221,2015-12-19,2991.4840000000004,,2991.4840000000004
221,2015-12-20,2955.4478333333323,,2955.4478333333323
221,2015-12-21,3194.929791666667,,3194.929791666667
221,2015-12-22,2048.760125,,2048.760125
221,2015-12-23,3367.5112499999996,,3367.5112499999996
221,2015-12-24,3451.47025,,3451.47025
221,2015-12-25,3038.608583333333,,3038.608583333333
221,2015-12-26,2950.2195000000006,,2950.2195000000006
221,2015-12-27,3056.5844999999995,,3056.5844999999995
221,2015-12-28,3152.070166666667,,3152.070166666667
221,2015-12-29,3151.1932916666665,,3151.1932916666665
221,2015-12-30,3111.960541666667,,3111.960541666667
221,2015-12-31,3095.390583333334,,3095.390583333334
221,2016-01-01,2995.2585,,2995.2585
221,2016-01-02,2995.298999999999,,2995.298999999999
221,2016-01-03,2984.102125,,2984.102125
221,2016-01-04,3053.4730833333338,,3053.4730833333338
221,2016-01-05,3082.9365416666665,,3082.9365416666665
221,2016-01-06,3217.4561666666664,,3217.4561666666664
221,2016-01-07,3156.956166666667,,3156.956166666667
221,2016-01-08,3178.3545,,3178.3545
221,2016-01-09,3050.289375,,3050.289375
221,2016-01-10,3085.738916666667,,3085.738916666667
221,2016-01-11,3190.4426249999997,,3190.4426249999997
221,2016-01-12,3062.602125000001,,3062.602125000001
221,2016-01-13,3207.178416666666,,3207.178416666666
221,2016-01-14,3192.765291666667,,3192.765291666667
221,2016-01-15,3169.203041666667,,3169.203041666667
221,2016-01-16,3041.8579166666673,,3041.8579166666673
221,2016-01-17,3030.9798749999995,,3030.9798749999995
221,2016-01-18,122.56729166666666,,122.56729166666666
221,2016-01-19,3131.129833333333,,3131.129833333333
221,2016-01-20,3294.975000000001,,3294.975000000001
221,2016-01-21,3315.3716249999998,,3315.3716249999998
221,2016-01-22,3265.6233333333334,,3265.6233333333334
221,2016-01-23,3068.9371666666666,,3068.9371666666666
221,2016-01-24,3037.2594583333334,,3037.2594583333334
221,2016-01-25,3229.0995,,3229.0995
221,2016-01-26,3257.198583333333,,3257.198583333333
221,2016-01-27,3243.06575,,3243.06575
221,2016-01-28,3218.6476666666663,,3218.6476666666663
221,2016-01-29,3214.754583333333,,3214.754583333333
221,2016-01-30,3058.3504166666667,,3058.3504166666667
221,2016-01-31,3125.9308749999996,,3125.9308749999996
221,2016-02-01,3265.0329583333328,,3265.0329583333328
221,2016-02-02,1497.4571666666664,,1497.4571666666664
221,2016-02-03,3228.435208333333,,3228.435208333333
221,2016-02-04,3148.6815416666655,,3148.6815416666655
221,2016-02-05,3189.492791666666,,3189.492791666666
221,2016-02-06,3043.3115833333327,,3043.3115833333327
221,2016-02-07,2886.966791666667,,2886.966791666667
221,2016-02-08,3196.5059166666665,,3196.5059166666665
221,2016-02-09,3212.2639166666672,,3212.2639166666672
221,2016-02-10,3207.318541666666,,3207.318541666666
221,2016-02-11,3182.477458333334,,3182.477458333334
221,2016-02-12,3215.927291666667,,3215.927291666667
221,2016-02-13,2997.9756249999996,,2997.9756249999996
221,2016-02-14,299.4883333333333,,299.4883333333333
221,2016-02-15,-128.472,,-128.472
221,2016-02-16,1951.8300000000002,,1951.8300000000002
221,2016-02-17,3183.892166666667,,3183.892166666667
221,2016-02-18,122.83029166666667,,122.83029166666667
221,2016-02-19,3025.9492916666663,,3025.9492916666663
221,2016-02-20,3065.462458333333,,3065.462458333333
221,2016-02-21,2995.342458333333,,2995.342458333333
221,2016-02-22,3177.844625000001,,3177.844625000001
221,2016-02-23,3194.587500000001,,3194.587500000001
221,2016-02-24,1674.2015,,1674.2015
221,2016-02-25,-4.118875000000001,,-4.118875000000001
221,2016-02-26,1017.8078333333334,,1017.8078333333334
221,2016-02-27,3094.35125,,3094.35125
221,2016-02-28,3164.588416666666,,3164.588416666666
221,2016-02-29,3273.0952083333336,,3273.0952083333336
221,2016-03-01,3184.201958333333,,3184.201958333333
221,2016-03-02,3107.9970833333336,,3107.9970833333336
221,2016-03-03,3089.347374999999,,3089.347374999999
221,2016-03-04,2882.1719166666667,,2882.1719166666667
221,2016-03-05,3056.5117916666672,,3056.5117916666672
221,2016-03-06,2991.6079999999997,,2991.6079999999997
221,2016-03-07,3279.7205,,3279.7205
221,2016-03-08,3451.273541666666,,3451.273541666666
221,2016-03-09,3553.881708333334,,3553.881708333334